Vichy, MO

12:49 PM CST on February 25, 2017 (GMT -0600)
Rolla National

Weather History for KVIH - March, 2014

Change the Weather History Date:

Wednesday, March 12, 2014

  Actual Average Record
Temperature  
Mean Temperature 37 °F 44 °F  
Max Temperature 45 °F 55 °F 80 °F (1954)
Min Temperature 29 °F 33 °F 10 °F (1960)
Degree Days  
Heating Degree Days 28 21  
Month to date heating degree days 337 277  
Since 1 July heating degree days 4643 4067  
Cooling Degree Days 0 0  
Month to date cooling degree days 0 0  
Year to date cooling degree days 0 0  
Moisture  
Dew Point 30 °F    
Average Humidity 69    
Maximum Humidity 96    
Minimum Humidity 41    
Precipitation  
Precipitation 0.06 in 0.10 in 1.01 in (1966)
Month to date precipitation 0.39 1.08  
Year to date precipitation 1.85 5.18  
Sea Level Pressure  
Sea Level Pressure 29.92 in    
Wind  
Wind Speed 15 mph (NW)    
Max Wind Speed 31 mph    
Max Gust Speed 40 mph    
Visibility 8 miles    
Events Rain , Snow    
T = Trace of Precipitation, MM = Missing Value Source: NWS Daily Summary

Daily Weather History Graph

Daily Weather History Graph

Search for Another Location

Airport or City:

Trip Planner

Search our weather history database for the weather conditions in past years. The results will help you decide how hot, cold, wet, or windy it might be!

Date:

Astronomy

Mar. 12, 2014 Rise Set
Actual Time 7:22 AM CDT 7:11 PM CDT
Civil Twilight 6:56 AM CDT 7:37 PM CDT
Nautical Twilight 6:25 AM CDT 8:08 PM CDT
Astronomical Twilight 5:55 AM CDT 8:39 PM CDT
Moon 3:44 PM CDT (3/12) 4:51 AM CDT (3/12)
Length of Visible Light 12h 41m
Length of Day
11h 48m
Waxing Gibbous, 85% of the Moon is Illuminated
Mar 12
Waxing Gibbous
Mar 16
Full
Mar 23
Last Quarter
Mar 30
New
Apr 7
First Quarter

Hourly Weather History & Observations

Time (CDT) Temp. Windchill Dew Point Humidity Pressure Visibility Wind Dir Wind Speed Gust Speed Precip Events Conditions
12:04 AM 41.0 °F 31.6 °F 39.9 °F 96% 29.56 in 2.5 mi NNW 20.7 mph 33.4 mph 0.04 in Rain Heavy Rain
12:15 AM 41.0 °F 31.1 °F 39.0 °F 93% 29.58 in 4.0 mi NNW 23.0 mph 29.9 mph 0.06 in Rain Light Rain
12:53 AM 39.9 °F 30.2 °F 37.9 °F 93% 29.61 in 10.0 mi North 20.7 mph 34.5 mph 0.06 in   Overcast
1:12 AM 39.9 °F 30.5 °F 37.0 °F 89% 29.63 in 10.0 mi North 19.6 mph 35.7 mph N/A   Overcast
1:31 AM 39.0 °F 28.8 °F 37.0 °F 93% 29.64 in 10.0 mi North 21.9 mph 31.1 mph N/A   Overcast
1:53 AM 37.9 °F 26.8 °F 35.1 °F 89% 29.69 in 10.0 mi North 24.2 mph 38.0 mph N/A   Overcast
2:23 AM 37.0 °F 26.2 °F 35.1 °F 93% 29.73 in 10.0 mi NNW 21.9 mph 31.1 mph 0.00 in   Overcast
2:34 AM 37.0 °F 26.4 °F 35.1 °F 93% 29.75 in 7.0 mi NNW 20.7 mph 27.6 mph 0.01 in   Overcast
2:53 AM 36.0 °F 25.3 °F 34.0 °F 93% 29.75 in 4.0 mi NNW 19.6 mph 36.8 mph 0.01 in Snow Light Snow
3:53 AM 33.1 °F 21.2 °F 32.0 °F 96% 29.80 in 2.5 mi NNW 20.7 mph 29.9 mph 0.03 in Snow Light Snow
4:17 AM 33.1 °F 21.5 °F 32.0 °F 96% 29.81 in 4.0 mi NNW 19.6 mph 27.6 mph 0.01 in Snow Light Snow
4:32 AM 33.1 °F 22.6 °F 30.9 °F 92% 29.82 in 1.8 mi NNW 16.1 mph - 0.01 in Snow Light Snow
4:53 AM 32.0 °F 20.8 °F 30.9 °F 96% 29.83 in 2.5 mi NNW 17.3 mph 26.5 mph 0.01 in Snow Light Snow
5:00 AM 32.0 °F 20.1 °F 30.9 °F 96% 29.85 in 3.0 mi NW 19.6 mph 26.5 mph 0.00 in Snow Light Snow
5:07 AM 32.0 °F 20.8 °F 30.9 °F 96% 29.85 in 2.5 mi NW 17.3 mph 26.5 mph 0.00 in Snow Light Snow
5:38 AM 32.0 °F 20.1 °F 30.9 °F 96% 29.87 in 3.0 mi NNW 19.6 mph 31.1 mph 0.01 in Snow Light Snow
5:50 AM 32.0 °F 20.1 °F 30.2 °F 93% 29.87 in 2.0 mi NNW 19.6 mph 27.6 mph 0.01 in Snow Light Snow
5:53 AM 32.0 °F 20.5 °F 30.9 °F 96% 29.87 in 2.0 mi NNW 18.4 mph 26.5 mph 0.01 in Snow Light Snow
6:10 AM 32.0 °F 21.6 °F 30.9 °F 96% 29.88 in 4.0 mi NW 15.0 mph 25.3 mph 0.00 in Snow Light Snow
6:42 AM 33.1 °F 23.0 °F 30.9 °F 92% 29.89 in 10.0 mi NW 15.0 mph 24.2 mph 0.00 in   Overcast
6:53 AM 33.1 °F 23.0 °F 30.0 °F 89% 29.90 in 10.0 mi NW 15.0 mph 26.5 mph 0.00 in   Overcast
7:51 AM 32.0 °F 20.8 °F 28.4 °F 87% 29.93 in 10.0 mi NW 17.3 mph 26.5 mph N/A   Overcast
7:53 AM 32.0 °F 21.2 °F 28.9 °F 88% 29.94 in 10.0 mi NW 16.1 mph 26.5 mph N/A   Overcast
8:53 AM 33.1 °F 20.9 °F 28.0 °F 82% 29.98 in 10.0 mi NW 21.9 mph 27.6 mph N/A   Mostly Cloudy
9:10 AM 33.1 °F 21.5 °F 27.0 °F 78% 29.99 in 10.0 mi NW 19.6 mph 32.2 mph N/A   Scattered Clouds
9:53 AM 35.1 °F 25.2 °F 27.0 °F 72% 30.03 in 10.0 mi NNW 16.1 mph 27.6 mph N/A   Scattered Clouds
10:08 AM 35.1 °F 24.8 °F 27.0 °F 72% 30.03 in 10.0 mi NNW 17.3 mph 32.2 mph N/A   Mostly Cloudy
10:33 AM 35.1 °F 23.8 °F 25.0 °F 67% 30.04 in 10.0 mi NNW 20.7 mph 31.1 mph N/A   Scattered Clouds
10:54 AM 36.0 °F 24.4 °F 26.1 °F 67% 30.06 in 10.0 mi NW 23.0 mph 29.9 mph N/A   Unknown
11:53 AM 39.0 °F 29.6 °F 28.0 °F 65% 30.07 in 10.0 mi NW 18.4 mph - N/A   Clear
12:53 PM 42.1 °F 33.3 °F 27.0 °F 55% 30.08 in 10.0 mi NNW 19.6 mph 25.3 mph N/A   Clear
1:53 PM 43.0 °F 33.8 °F 25.0 °F 49% 30.07 in 10.0 mi NNW 23.0 mph 27.6 mph N/A   Clear
2:53 PM 44.1 °F 36.5 °F 24.1 °F 45% 30.07 in 10.0 mi NW 17.3 mph 31.1 mph N/A   Partly Cloudy
3:53 PM 45.0 °F 37.1 °F 24.1 °F 44% 30.08 in 10.0 mi NNW 19.6 mph 34.5 mph N/A   Clear
4:53 PM 45.0 °F 36.4 °F 23.0 °F 42% 30.09 in 10.0 mi NNW 23.0 mph 28.8 mph N/A   Clear
5:53 PM 43.0 °F 35.7 °F 25.0 °F 49% 30.10 in 10.0 mi NW 15.0 mph 24.2 mph N/A   Mostly Cloudy
6:53 PM 42.1 °F 36.1 °F 26.1 °F 53% 30.13 in 10.0 mi NNW 10.4 mph 19.6 mph N/A   Overcast
7:53 PM 41.0 °F 36.4 °F 26.1 °F 55% 30.13 in 10.0 mi NW 6.9 mph - N/A   Overcast
8:53 PM 37.0 °F 34.5 °F 26.1 °F 65% 30.13 in 10.0 mi West 3.5 mph - N/A   Clear
9:53 PM 30.9 °F 27.5 °F 25.0 °F 79% 30.14 in 10.0 mi West 3.5 mph - N/A   Scattered Clouds
10:53 PM 33.1 °F - 26.1 °F 75% 30.14 in 10.0 mi Calm Calm - N/A   Mostly Cloudy
11:53 PM 30.0 °F - 26.1 °F 85% 30.15 in 10.0 mi Calm Calm - N/A   Clear